This is the latest recevied weather packets stored in our database for station/object JS2QVS-13. If no packets are shown the sender has not sent any weather packets the latest 1 day(s).
| Time | Temp. | Humidity | Pressure | Rain* | Wind** | Luminosity | Snow |
|---|---|---|---|---|---|---|---|
| 1778041662 | 20° C | 69% | 1015.8 hPa | 0 mm | 2.24 m/s, 98° | - | - |
| 1778041062 | 20° C | 70% | 1016 hPa | 0 mm | 3.13 m/s, 75° | - | - |
| 1778040462 | 20° C | 70% | 1016 hPa | 0 mm | 2.68 m/s, 72° | - | - |
| 1778039862 | 20° C | 68% | 1016.2 hPa | 0 mm | 2.68 m/s, 92° | - | - |
| 1778039262 | 20° C | 69% | 1016.4 hPa | 0 mm | 0 m/s | - | - |
| 1778038661 | 20° C | 69% | 1016.6 hPa | 0 mm | 0.89 m/s, 70° | - | - |
| 1778038061 | 20° C | 70% | 1016.7 hPa | 0 mm | 2.24 m/s, 89° | - | - |
| 1778037464 | 20° C | 72% | 1016.8 hPa | 0 mm | 1.34 m/s, 102° | - | - |
| 1778036863 | 20° C | 69% | 1016.8 hPa | 0 mm | 3.58 m/s, 81° | - | - |
| 1778036262 | 19.44° C | 69% | 1016.8 hPa | 0 mm | 3.58 m/s, 104° | - | - |
| 1778035662 | 19.44° C | 70% | 1017 hPa | 0 mm | 3.13 m/s, 107° | - | - |
| 1778035062 | 19.44° C | 73% | 1017.1 hPa | 0 mm | 3.13 m/s, 81° | - | - |
| 1778034462 | 20° C | 68% | 1017.2 hPa | 0 mm | 3.58 m/s, 85° | - | - |
| 1778033862 | 20° C | 67% | 1017.4 hPa | 0 mm | 0.89 m/s, 182° | - | - |
| 1778033262 | 20° C | 66% | 1017.5 hPa | 0 mm | 1.34 m/s, 225° | - | - |
| 1778032662 | 20° C | 66% | 1017.4 hPa | 0 mm | 4.02 m/s, 82° | - | - |
| 1778032062 | 20.56° C | 65% | 1017.5 hPa | 0 mm | 2.24 m/s, 126° | - | - |
| 1778031462 | 20.56° C | 62% | 1017.6 hPa | 0 mm | 2.68 m/s, 90° | - | - |
| 1778030261 | 20.56° C | 61% | 1017.6 hPa | 0 mm | 3.13 m/s, 76° | - | - |
| 1778029661 | 20.56° C | 61% | 1017.7 hPa | 0 mm | 2.68 m/s, 75° | - | - |
| 1778029063 | 20.56° C | 61% | 1017.7 hPa | 0 mm | 3.13 m/s, 72° | - | - |
| 1778028463 | 20° C | 61% | 1017.8 hPa | 0 mm | 4.02 m/s, 81° | - | - |
| 1778027863 | 20° C | 62% | 1018 hPa | 0 mm | 3.13 m/s, 73° | - | - |
| 1778027262 | 20° C | 62% | 1018.2 hPa | 0 mm | 3.13 m/s, 89° | - | - |
| 1778026062 | 19.44° C | 62% | 1018.1 hPa | 0 mm | 2.68 m/s, 66° | - | - |
* Rain latest hour (hover to see other rain measurements)
** Current wind speed in m/s (hover to see current wind gust speed)